Flag for U.S.A. Weather past 2 weeks in Montpelier, Vermont, U.S.A.

Now
31 °F

Sunny.


Feels Like: 23 °F
Forecast: 20 / 36 °F
Wind: 9 mph from North

Location: Knapp State Airport

Current Time: Mar 31, 2015 at 1:32:03 PM

Latest Report: Mar 31, 2015 at 12:51 PM


Visibility: 10 mi

Pressure: 29.79 "Hg

Humidity: 49%

Dew point: 14 °F

Location of MontpelierLocation

Historic Weather in Montpelier — Graph

°F

Montpelier temperature yesterday

Maximum temperature yesterday: 37 °F (at 2:51 PM)
Minimum temperature yesterday: 29 °F (at 12:51 AM)
Average temperature yesterday: 33 °F

Past Weeks' High & Low Weather Summary

 TemperatureHumidityPressure
High47 °F (Mar 26, 11:51 AM)100% (Mar 26, 7:51 PM)30.45 "Hg (Mar 26, 7:51 PM)
Low0 °F (Mar 24, 6:51 AM)25% (Mar 29, 4:51 PM)29.51 "Hg (Mar 17, 11:51 AM)
Average23 °F65%30.03 "Hg
* Reported Mar 16 11:51 AM — Mar 31 11:51 AM, Montpelier, Weather by CustomWeather, © 2015

Note: Actual official high and low records may vary slightly from our data, if they occured in-between our weather recording intervals... More about our weather records

Advertising

Montpelier weather history for previous 24 hours

 ConditionsComfort  
Time TempWeatherWind HumidityBarometerVisibility
11:51 AM
Tue, Mar 31
30 °FPassing clouds.12 mph54%29.80 "Hg10 mi
10:51 AM28 °FPartly sunny.14 mph64%29.81 "Hg10 mi
9:51 AM27 °FLight snow. Overcast.12 mph72%29.82 "Hg7 mi
8:51 AM26 °FOvercast.6 mph77%29.81 "Hg8 mi
7:51 AM26 °FLight snow. Overcast.6 mph81%29.81 "Hg3 mi
6:51 AM27 °FMostly cloudy.12 mph78%29.79 "Hg10 mi
4:51 AM28 °FOvercast.7 mph78%29.77 "Hg10 mi
3:51 AM28 °FOvercast.15 mph81%29.75 "Hg8 mi
12:00 AM31 °FSnow. Ice fog.6 mph96%29.68 "Hg1 mi
10:51 PM
Mon, Mar 30
33 °FOvercast.7 mph82%29.72 "Hg10 mi
10:02 PM32 °FLight snow. Ice fog.7 mph92%29.68 "Hg3 mi
9:57 PM32 °FLight snow. Ice fog.6 mph92%29.68 "Hg1 mi
9:02 PM33 °FLight snow. Fog.6 mph85%29.67 "Hg1 mi
8:51 PM35 °FLight snow. Overcast.9 mph72%29.71 "Hg3 mi
7:51 PM34 °FLight snow. Mostly cloudy.9 mph79%29.69 "Hg8 mi
6:51 PM35 °FLight snow. Cloudy.9 mph70%29.68 "Hg7 mi
5:51 PM36 °FChilly.14 mph67%29.67 "Hg10 mi
4:51 PM36 °FLight snow. Mostly cloudy.9 mph67%29.67 "Hg5 mi
3:51 PM37 °FOvercast.9 mph65%29.65 "Hg10 mi
3:04 PM37 °FOvercast.12 mph65%29.62 "Hg10 mi
2:51 PM37 °FMostly cloudy.7 mph65%29.66 "Hg10 mi
1:51 PM33 °FOvercast.10 mph75%29.66 "Hg8 mi
Weather by CustomWeather, © 2015

See weather overviewHow to use our weather pages